Location: Bethera
(33.2010°N, 79.7880°W)
Time: 14:39:02
(UTC-05:00)

Amateur Radio Satellites - All Passes

Search period start: 01 February 2015 14:09
Search period end: 02 February 2015 14:09
Location: Bethera, 33.2010°N, 79.7880°W

Satellite Date Start Highest point End Downlink Frequencies (MHz)
Time Altitude Azimuth
PCSat 01 Feb 14:09:20 14:14:19 37° 250° (WSW) 14:19:13 145.827
KKS-1 01 Feb 14:10:35 14:13:58 22° 94° (E) 14:17:28 437.445
CUSAT 1 01 Feb 14:11:10 14:14:30 17° 64° (ENE) 14:17:27 437.405
AO-7 01 Feb 14:16:36 14:22:51 25° 61° (ENE) 14:29:25 29.400- 29.500
ITAMSAT 1 01 Feb 14:22:38 14:27:38 49° 260° (W) 14:32:40 435.822/435.867
SWISSCUBE 01 Feb 14:31:24 14:35:45 34° 288° (WNW) 14:40:02 437.505
GONETS M04 01 Feb 14:37:50 14:42:32 15° 278° (W) 14:46:34
O/OREOS (USA 219) 01 Feb 14:44:12 14:47:38 22° 102° (ESE) 14:51:11 437.305
BEESAT 01 Feb 14:46:49 14:50:48 26° 289° (WNW) 14:54:41 436.000
ITUPSAT 1 01 Feb 14:53:08 14:56:56 23° 290° (WNW) 15:00:36 437.325
HORYU 2 01 Feb 14:54:50 14:59:19 71° 76° (ENE) 15:03:48 437.375
M-CUBED/EXP-1 PRIME 01 Feb 15:06:50 15:08:56 16° 100° (E) 15:11:13 437.505
JUGNU 01 Feb 15:31:40 15:35:11 16° 169° (SSE) 15:38:46 437.505
STARS 01 Feb 15:31:51 15:36:15 63° 284° (WNW) 15:40:36 437.465
AUBIESAT-1 01 Feb 15:36:05 15:39:14 35° 104° (ESE) 15:42:35 437.475
DANDE 01 Feb 15:42:50 15:48:29 56° 267° (W) 15:52:36 436.750
Gurwin Techsat 1B 01 Feb 15:44:01 15:46:13 12° 270° (W) 15:48:04 435.225
KKS-1 01 Feb 15:46:48 15:50:38 27° 289° (WNW) 15:54:21 437.445
CUSAT 1 01 Feb 15:53:16 15:57:53 31° 272° (W) 16:01:24 437.405
RS-15 01 Feb 15:57:51 16:07:16 28° 254° (WSW) 16:16:25 29.354- 29.394
AO-7 01 Feb 16:06:48 16:15:06 65° 257° (WSW) 16:23:24 29.400- 29.500
MOZHAYETS 4 01 Feb 16:15:19 16:18:31 19° 93° (E) 16:21:53
SRMSAT 01 Feb 16:19:42 16:22:15 13° 165° (SSE) 16:24:54 437.500
O/OREOS (USA 219) 01 Feb 16:23:07 16:26:56 26° 297° (WNW) 16:30:43 437.305
JAS-2 01 Feb 16:27:30 16:33:03 85° 257° (WSW) 16:38:17 435.910
M-CUBED/EXP-1 PRIME 01 Feb 16:41:17 16:43:56 21° 291° (WNW) 16:46:37 437.505
Cubesat XI-IV 01 Feb 16:55:01 16:58:56 22° 69° (ENE) 17:03:02 437.490
CUTE-I 01 Feb 17:13:06 17:17:44 33° 71° (ENE) 17:22:29 437.470
JUGNU 01 Feb 17:19:10 17:23:35 22° 178° (S) 17:28:02 437.505
YUBILEINY 01 Feb 17:40:17 17:42:48 12° 81° (E) 17:46:09 435.215
MOZHAYETS 4 01 Feb 17:51:46 17:55:50 31° 287° (WNW) 17:59:50
SRMSAT 01 Feb 18:06:29 18:10:48 21° 174° (S) 18:15:10 437.500
SO-50 01 Feb 18:09:54 18:14:10 29° 53° (NE) 18:18:30 436.795
STRAND 1 01 Feb 18:15:56 18:19:33 20° 93° (E) 18:23:21 437.568
CUBESAT XI-V 01 Feb 18:17:31 18:21:36 30° 96° (E) 18:25:46 437.345
PRISM 01 Feb 18:23:27 18:27:28 47° 100° (E) 18:31:31 437.425
Cubesat XI-IV 01 Feb 18:33:53 18:38:49 38° 262° (W) 18:43:46 437.490
CUTE-I 01 Feb 18:53:28 18:57:51 25° 265° (W) 19:02:09 437.470
JUGNU 01 Feb 19:07:55 19:12:00 19° 188° (S) 19:16:04 437.505
GOMX 1 01 Feb 19:14:46 19:17:05 14° 66° (ENE) 19:19:46 467.674
CUTE 1.7 + AOD 2 01 Feb 19:28:05 19:30:17 14° 70° (ENE) 19:32:41 437.475
ISS 01 Feb 19:28:56 19:31:46 28° 131° (SE) 19:34:39 145.825
YUBILEINY 01 Feb 19:29:53 19:38:33 84° 95° (E) 19:47:18 435.215
BRITE-PL 01 Feb 19:36:11 19:40:39 32° 71° (ENE) 19:45:30 437.365/2234.400
HO-68 01 Feb 19:46:01 19:52:41 45° 69° (ENE) 19:59:25 435.675
SO-50 01 Feb 19:50:27 19:54:42 28° 248° (WSW) 19:58:48 436.795
SEEDS 01 Feb 19:52:11 19:55:30 23° 72° (ENE) 19:58:55 437.485
STRAND 1 01 Feb 19:54:08 19:58:55 39° 288° (WNW) 20:03:39 437.568
SRMSAT 01 Feb 19:54:56 19:59:24 22° 184° (S) 20:03:51 437.500
CUBESAT XI-V 01 Feb 19:55:16 19:58:55 22° 289° (WNW) 20:02:28 437.345
PRISM 01 Feb 20:01:08 20:02:38 11° 292° (WNW) 20:03:54 437.425
CINEMA 3 01 Feb 20:04:38 20:07:41 17° 69° (ENE) 20:10:58 145.822/145.860
COMPASS 1 01 Feb 20:12:43 20:16:29 33° 74° (ENE) 20:20:18 437.405
AAUSAT CUBESAT 2 01 Feb 20:35:41 20:39:48 56° 76° (ENE) 20:43:56 437.432
CANX-2 01 Feb 20:38:00 20:42:18 71° 260° (W) 20:46:34 2200.000
ZACube-1 01 Feb 20:42:19 20:44:56 16° 69° (ENE) 20:47:44 437.345
DOVE 4 01 Feb 20:43:44 20:48:46 79° 78° (ENE) 20:54:05 437.250
DX 1 01 Feb 20:44:55 20:47:57 19° 70° (ENE) 20:51:08 434.975-435.025
GOMX 1 01 Feb 20:49:35 20:54:37 65° 260° (W) 20:59:59 467.674
CUBEBUG 2 01 Feb 20:50:03 20:54:03 28° 72° (ENE) 20:58:12 437.445
FUNcube-1 01 Feb 20:52:16 20:55:30 20° 70° (ENE) 20:58:53 145.935
JUGNU 01 Feb 20:59:08 21:00:24 11° 197° (SSW) 21:01:31 437.505
CUTE 1.7 + AOD 2 01 Feb 21:01:54 21:05:57 39° 262° (W) 21:09:57 437.475
ISS 01 Feb 21:05:39 21:08:15 21° 325° (NW) 21:10:51 145.825
BRITE-PL 01 Feb 21:14:59 21:19:12 25° 267° (W) 21:23:33 437.365/2234.400
Oscar 11 01 Feb 21:16:32 21:20:54 82° 75° (ENE) 21:25:14 145.826/435.025
UWE-3 01 Feb 21:21:20 21:25:52 53° 75° (ENE) 21:30:28 435.000/436.395/437.385
AISAT 01 Feb 21:27:27 21:30:46 22° 70° (ENE) 21:34:14 437.250
SEEDS 01 Feb 21:27:50 21:31:17 23° 265° (W) 21:34:37 437.485
YUBILEINY 01 Feb 21:31:16 21:36:38 16° 295° (WNW) 21:41:26 435.215
HO-68 01 Feb 21:34:29 21:40:35 29° 264° (W) 21:46:30 435.675
CINEMA 3 01 Feb 21:39:47 21:44:32 46° 262° (W) 21:49:22 145.822/145.860
ESTCUBE 1 01 Feb 21:44:02 21:46:05 13° 68° (ENE) 21:48:22 437.505/2401.250
DELFI C3 01 Feb 21:44:20 21:48:20 54° 260° (W) 21:52:19 145.870
SRMSAT 01 Feb 21:44:43 21:47:58 15° 193° (SSW) 21:51:07 437.500
TIGRISAT 01 Feb 21:48:24 21:49:16 11° 90° (E) 21:50:26 435.000
HUMSAT D 01 Feb 21:49:19 21:53:28 46° 75° (ENE) 21:57:40 437.325/437.525
COMPASS 1 01 Feb 21:49:42 21:52:21 15° 267° (W) 21:54:47 437.405
CUBEBUG 1 01 Feb 21:51:17 21:53:32 14° 69° (ENE) 21:56:00 437.445
VELOX 1 01 Feb 21:52:45 21:56:52 40° 74° (ENE) 22:01:04 145.980
UKube-1 01 Feb 21:54:07 21:58:24 64° 259° (W) 22:02:42 .
AIST 1 01 Feb 22:06:04 22:10:20 52° 81° (E) 22:14:38
POPSAT HIP 1 01 Feb 22:12:14 22:13:50 12° 91° (E) 22:15:42 437.405
DUCHIFAT 1 01 Feb 22:12:32 22:14:07 12° 91° (E) 22:15:58 145.980
ZACube-1 01 Feb 22:16:37 22:21:00 42° 262° (W) 22:25:23 437.345
DX 1 01 Feb 22:20:12 22:24:03 29° 263° (W) 22:27:51 434.975-435.025
50 SAT 01 Feb 22:24:55 22:29:03 86° 257° (WSW) 22:33:12 437.505
CUBEBUG 2 01 Feb 22:26:52 22:30:45 24° 266° (W) 22:34:33 437.445
FUNcube-1 01 Feb 22:27:30 22:31:39 32° 263° (W) 22:35:47 145.935
UNISAT 6 01 Feb 22:40:27 22:44:43 51° 99° (E) 22:48:54 437.425
NANOSAT C BR1 01 Feb 22:46:11 22:50:02 32° 97° (E) 22:53:53 145.865
SPROUT 01 Feb 22:56:24 22:59:15 18° 70° (ENE) 23:02:17 437.525
UWE-3 01 Feb 23:00:46 23:02:48 12° 270° (W) 23:04:32 435.000/436.395/437.385
BUGSAT 1 01 Feb 23:01:39 23:05:39 38° 98° (E) 23:09:39 437.445
QB50P2 01 Feb 23:02:32 23:06:45 54° 100° (E) 23:10:57 145.880/145.840
AISAT 01 Feb 23:03:26 23:07:17 28° 264° (W) 23:11:05 437.250
QB50P1 01 Feb 23:10:25 23:14:42 68° 101° (E) 23:18:56 145.935-145.965
ANTELSAT 01 Feb 23:16:45 23:21:04 56° 285° (WNW) 23:25:15 437.575/2403.000
ESTCUBE 1 01 Feb 23:18:19 23:22:38 46° 261° (W) 23:26:57 437.505/2401.250
TISAT 1 01 Feb 23:18:54 23:22:39 32° 73° (ENE) 23:26:29 437.305
TIGRISAT 01 Feb 23:22:11 23:26:26 49° 285° (WNW) 23:30:34 435.000
CUBEBUG 1 01 Feb 23:25:31 23:29:37 40° 262° (W) 23:33:44 437.445
HUMSAT D 01 Feb 23:27:49 23:29:34 12° 269° (W) 23:31:04 437.325/437.525
POLYITAN 1 01 Feb 23:27:54 23:32:13 72° 283° (WNW) 23:36:27 437.675
VELOX 1 01 Feb 23:31:13 23:33:42 14° 268° (W) 23:35:57 145.980
GONETS M04 01 Feb 23:40:32 23:45:48 19° 83° (E) 23:51:35
POPSAT HIP 1 01 Feb 23:45:56 23:50:02 43° 286° (WNW) 23:54:04 437.405
DUCHIFAT 1 01 Feb 23:46:11 23:50:16 43° 286° (WNW) 23:54:18 145.980
SWISSCUBE 01 Feb 23:58:09 00:00:39 15° 68° (ENE) 00:03:23 437.505
BEESAT 02 Feb 00:12:18 00:15:35 20° 69° (ENE) 00:19:02 436.000
ITUPSAT 1 02 Feb 00:18:25 00:22:00 22° 70° (ENE) 00:25:43 437.325
UNISAT 6 02 Feb 00:19:34 00:21:07 11° 292° (WNW) 00:22:23 437.425
NANOSAT C BR1 02 Feb 00:22:50 00:25:41 17° 290° (WNW) 00:28:21 145.865
SPROUT 02 Feb 00:31:19 00:35:10 31° 263° (W) 00:39:00 437.525
Oscar 19 02 Feb 00:37:29 00:39:48 13° 91° (E) 00:42:25 437.125/150
BUGSAT 1 02 Feb 00:38:22 00:40:52 15° 291° (WNW) 00:43:10 437.445
QB50P2 02 Feb 00:41:12 00:42:16 11° 292° (WNW) 00:43:03 145.880/145.840
TISAT 1 02 Feb 00:55:49 00:58:35 16° 267° (W) 01:01:13 437.305
O/OREOS (USA 219) 02 Feb 00:57:52 01:01:29 23° 62° (ENE) 01:05:12 437.305
KKS-1 02 Feb 01:06:27 01:08:17 13° 68° (ENE) 01:10:22 437.445
BEESAT 2 02 Feb 01:14:35 01:18:40 85° 118° (ESE) 01:22:51 435.950
BEESAT 3 02 Feb 01:24:36 01:28:38 62° 300° (WNW) 01:32:44 437.485
AIST 2 02 Feb 01:31:40 01:35:42 48° 115° (ESE) 01:39:52 435.215
GONETS M04 02 Feb 01:33:07 01:41:54 74° 278° (W) 01:50:37
SWISSCUBE 02 Feb 01:33:36 01:38:11 47° 260° (W) 01:42:46 437.505
BEESAT 02 Feb 01:48:52 01:53:14 35° 262° (W) 01:57:34 436.000
M-CUBED/EXP-1 PRIME 02 Feb 01:53:16 01:55:05 13° 67° (ENE) 01:57:01 437.505
ITUPSAT 1 02 Feb 01:55:33 01:59:47 30° 263° (W) 02:03:56 437.325
Oscar 19 02 Feb 02:14:34 02:19:35 55° 286° (WNW) 02:24:34 437.125/150
Gurwin Techsat 1B 02 Feb 02:21:17 02:26:08 36° 97° (E) 02:31:02 435.225
AUBIESAT-1 02 Feb 02:21:30 02:24:46 26° 70° (ENE) 02:27:54 437.475
STARS 02 Feb 02:24:30 02:28:54 66° 76° (ENE) 02:33:20 437.465
O/OREOS (USA 219) 02 Feb 02:36:59 02:40:55 27° 257° (WSW) 02:44:44 437.305
ITAMSAT 1 02 Feb 02:39:32 02:44:47 84° 100° (E) 02:50:02 435.822/435.867
KKS-1 02 Feb 02:40:13 02:44:34 50° 260° (W) 02:48:56 437.445
HORYU 2 02 Feb 02:51:39 02:54:42 19° 94° (E) 02:57:54 437.375
PCSat 02 Feb 03:03:10 03:08:22 52° 112° (ESE) 03:13:39 145.827
DANDE 02 Feb 03:03:15 03:10:21 34° 89° (E) 03:17:56 436.750
CUSAT 1 02 Feb 03:09:47 03:17:23 44° 91° (E) 03:25:14 437.405
AIST 2 02 Feb 03:12:12 03:14:40 14° 311° (NW) 03:16:59 435.215
MOZHAYETS 4 02 Feb 03:15:09 03:16:41 12° 68° (ENE) 03:18:30
M-CUBED/EXP-1 PRIME 02 Feb 03:26:12 03:29:54 34° 256° (WSW) 03:33:20 437.505
ISS 02 Feb 03:35:53 03:39:09 57° 43° (NE) 03:42:23 145.825
GONETS M04 02 Feb 03:38:12 03:40:36 11° 299° (WNW) 03:42:08
JAS-2 02 Feb 03:41:12 03:44:29 15° 92° (E) 03:48:22 435.910
AUBIESAT-1 02 Feb 03:57:05 03:59:42 16° 260° (W) 04:02:04 437.475
Gurwin Techsat 1B 02 Feb 04:01:46 04:05:56 23° 291° (WNW) 04:09:57 435.225
RS-15 02 Feb 04:01:57 04:12:45 69° 114° (ESE) 04:23:37 29.354- 29.394
AO-7 02 Feb 04:13:13 04:21:23 58° 102° (ESE) 04:29:31 29.400- 29.500
HORYU 2 02 Feb 04:27:32 04:31:27 30° 288° (WNW) 04:35:17 437.375
DANDE 02 Feb 04:45:32 04:53:34 50° 284° (WNW) 05:01:51 436.750
PCSat 02 Feb 04:48:16 04:52:10 19° 308° (NW) 04:55:53 145.827
MOZHAYETS 4 02 Feb 04:49:01 04:53:31 55° 260° (W) 04:58:01
CUSAT 1 02 Feb 04:52:51 05:00:30 38° 286° (WNW) 05:08:03 437.405
VERMONT LUNAR 02 Feb 05:08:51 05:10:44 14° 142° (SE) 05:12:44 437.305
PRISM 02 Feb 05:10:53 05:13:51 20° 71° (ENE) 05:16:56 437.425
CUBESAT XI-V 02 Feb 05:17:52 05:20:56 19° 70° (ENE) 05:24:11 437.345
Cubesat XI-IV 02 Feb 05:18:06 05:19:43 12° 90° (E) 05:21:45 437.490
JAS-2 02 Feb 05:23:58 05:29:55 68° 285° (WNW) 05:36:40 435.910
STRAND 1 02 Feb 05:28:14 05:31:40 19° 68° (ENE) 05:35:18 437.568
CUTE-I 02 Feb 05:35:11 05:38:44 18° 93° (E) 05:42:30 437.470
YUBILEINY 02 Feb 05:45:52 05:53:31 34° 73° (ENE) 06:01:23 435.215
AO-7 02 Feb 06:06:57 06:13:44 28° 298° (WNW) 06:20:16 29.400- 29.500
RS-15 02 Feb 06:16:36 06:26:05 31° 316° (NW) 06:35:23 29.354- 29.394
PHONESAT 2.4 02 Feb 06:31:44 06:35:04 38° 148° (SSE) 06:38:27 2401.200-2431.200
VERMONT LUNAR 02 Feb 06:45:04 06:48:31 87° 328° (NNW) 06:52:00 437.305
PRISM 02 Feb 06:45:51 06:49:16 24° 264° (W) 06:52:37 437.425
CUBESAT XI-V 02 Feb 06:53:59 06:58:10 34° 263° (W) 07:02:22 437.345
Cubesat XI-IV 02 Feb 06:55:03 07:00:24 68° 286° (WNW) 07:05:44 437.490
STRAND 1 02 Feb 07:05:48 07:10:36 41° 261° (W) 07:15:25 437.568
CUTE-I 02 Feb 07:13:57 07:19:04 45° 287° (WNW) 07:24:08 437.470
YUBILEINY 02 Feb 07:42:17 07:50:32 45° 270° (W) 07:58:39 435.215
BRITE-PL 02 Feb 07:46:50 07:49:58 16° 89° (E) 07:53:16 437.365/2234.400
PHONESAT 2.4 02 Feb 08:10:10 08:13:37 43° 342° (NNW) 08:17:04 2401.200-2431.200
SO-50 02 Feb 08:21:11 08:24:38 22° 111° (ESE) 08:28:15 436.795
VERMONT LUNAR 02 Feb 08:23:52 08:26:54 27° 350° (N) 08:29:56 437.305
AAUSAT CUBESAT 2 02 Feb 08:25:24 08:26:56 12° 91° (E) 08:28:44 437.432
CANX-2 02 Feb 08:28:18 08:31:50 26° 96° (E) 08:35:25 2200.000
RS-15 02 Feb 08:42:39 08:43:48 10° 349° (N) 08:44:40 29.354- 29.394
DOVE 4 02 Feb 08:48:24 08:52:49 31° 95° (E) 08:57:04 437.250
CUTE 1.7 + AOD 2 02 Feb 08:51:23 08:55:27 46° 99° (E) 08:59:30 437.475
GOMX 1 02 Feb 08:56:24 09:01:36 57° 99° (E) 09:06:29 467.674
HO-68 02 Feb 09:05:16 09:12:25 70° 103° (ESE) 09:19:33 435.675
Oscar 11 02 Feb 09:09:08 09:12:15 20° 94° (E) 09:15:30 145.826/435.025
SEEDS 02 Feb 09:15:43 09:19:55 81° 101° (ESE) 09:24:05 437.485
UWE-3 02 Feb 09:17:45 09:19:57 14° 91° (E) 09:22:22 435.000/436.395/437.385
BRITE-PL 02 Feb 09:23:29 09:28:56 53° 286° (WNW) 09:34:00 437.365/2234.400
DELFI C3 02 Feb 09:29:11 09:32:36 27° 96° (E) 09:36:04 145.870
UNISAT 6 02 Feb 09:35:24 09:39:26 29° 72° (ENE) 09:43:31 437.425
COMPASS 1 02 Feb 09:35:53 09:40:02 69° 283° (WNW) 09:44:08 437.405
NANOSAT C BR1 02 Feb 09:36:13 09:38:38 15° 69° (ENE) 09:41:15 145.865
CINEMA 3 02 Feb 09:39:33 09:44:13 62° 100° (E) 09:48:39 145.822/145.860
BEESAT 2 02 Feb 09:39:33 09:42:04 16° 50° (NE) 09:44:43 435.950
UKube-1 02 Feb 09:46:29 09:50:15 29° 97° (E) 09:54:04 .
BEESAT 3 02 Feb 09:48:34 09:51:47 22° 53° (NE) 09:55:03 437.485
BUGSAT 1 02 Feb 09:49:12 09:51:37 16° 70° (ENE) 09:54:14 437.445
PHONESAT 2.4 02 Feb 09:49:40 09:52:41 24° 359° (N) 09:55:43 2401.200-2431.200
VELOX 1 02 Feb 09:50:16 09:51:20 11° 90° (E) 09:52:43 145.980
QB50P2 02 Feb 09:52:05 09:55:30 24° 72° (ENE) 09:59:03 145.880/145.840
AAUSAT CUBESAT 2 02 Feb 09:58:57 10:02:51 40° 286° (WNW) 10:06:43 437.432
QB50P1 02 Feb 09:59:33 10:03:13 29° 72° (ENE) 10:06:58 145.935-145.965
AIST 2 02 Feb 09:59:48 10:00:55 11° 46° (NE) 10:02:14 435.215
SO-50 02 Feb 10:00:56 10:05:01 31° 306° (NW) 10:09:10 436.795
VERMONT LUNAR 02 Feb 10:02:38 10:05:35 25° 7° (N) 10:08:34 437.305
CANX-2 02 Feb 10:04:32 10:07:40 20° 289° (WNW) 10:10:39 2200.000
50 SAT 02 Feb 10:09:49 10:12:22 17° 93° (E) 10:15:03 437.505
ZACube-1 02 Feb 10:09:54 10:14:08 50° 99° (E) 10:18:15 437.345
ANTELSAT 02 Feb 10:11:00 10:15:42 76° 77° (ENE) 10:20:25 437.575/2403.000
DX 1 02 Feb 10:12:13 10:16:35 64° 101° (E) 10:20:56 434.975-435.025
TIGRISAT 02 Feb 10:16:03 10:20:46 84° 77° (ENE) 10:25:28 435.000
POLYITAN 1 02 Feb 10:16:51 10:21:00 48° 74° (ENE) 10:25:11 437.675
FUNcube-1 02 Feb 10:20:14 10:24:34 68° 101° (E) 10:28:46 145.935
CUBEBUG 2 02 Feb 10:21:50 10:26:19 76° 283° (WNW) 10:30:37 437.445
DOVE 4 02 Feb 10:26:25 10:30:25 23° 291° (WNW) 10:34:08 437.250
CUTE 1.7 + AOD 2 02 Feb 10:29:25 10:31:02 12° 291° (WNW) 10:32:24 437.475
AIST 1 02 Feb 10:31:29 10:35:22 37° 92° (E) 10:39:19
DUCHIFAT 1 02 Feb 10:34:14 10:38:29 78° 77° (ENE) 10:42:47 145.980
POPSAT HIP 1 02 Feb 10:34:16 10:38:33 79° 77° (ENE) 10:42:52 437.405
GOMX 1 02 Feb 10:36:14 10:39:12 15° 294° (WNW) 10:41:50 467.674
Oscar 11 02 Feb 10:44:48 10:48:27 27° 288° (WNW) 10:52:02 145.826/435.025
UWE-3 02 Feb 10:52:40 10:56:46 38° 287° (WNW) 11:00:43 435.000/436.395/437.385
HO-68 02 Feb 10:54:37 10:59:34 20° 297° (WNW) 11:04:11 435.675
RS-15 02 Feb 10:57:23 11:03:19 16° 27° (NNE) 11:09:54 29.354- 29.394
AISAT 02 Feb 10:57:57 11:02:29 78° 103° (ESE) 11:06:58 437.250
DELFI C3 02 Feb 11:04:53 11:07:41 18° 289° (WNW) 11:10:21 145.870
NANOSAT C BR1 02 Feb 11:10:18 11:14:15 36° 262° (W) 11:18:13 145.865
UNISAT 6 02 Feb 11:12:30 11:16:15 22° 266° (W) 11:19:50 437.425
HUMSAT D 02 Feb 11:13:48 11:17:52 48° 285° (WNW) 11:21:51 437.325/437.525
ESTCUBE 1 02 Feb 11:15:12 11:19:36 49° 99° (E) 11:24:01 437.505/2401.250
BEESAT 2 02 Feb 11:16:36 11:20:30 40° 246° (WSW) 11:24:20 435.950
CUBEBUG 1 02 Feb 11:18:30 11:22:50 50° 99° (E) 11:27:10 437.445
CINEMA 3 02 Feb 11:19:35 11:20:53 11° 294° (WNW) 11:21:53 145.822/145.860
UKube-1 02 Feb 11:23:02 11:26:16 20° 290° (WNW) 11:29:21 .
BUGSAT 1 02 Feb 11:23:10 11:26:53 32° 263° (W) 11:30:38 437.445
VELOX 1 02 Feb 11:23:55 11:28:18 53° 285° (WNW) 11:32:39 145.980
BEESAT 3 02 Feb 11:26:24 11:29:55 26° 248° (WSW) 11:33:18 437.485
QB50P2 02 Feb 11:27:58 11:31:23 22° 265° (W) 11:34:43 145.880/145.840
PHONESAT 2.4 02 Feb 11:28:25 11:31:49 37° 16° (NNE) 11:35:13 2401.200-2431.200
AIST 2 02 Feb 11:35:50 11:40:05 68° 244° (WSW) 11:44:13 435.215
QB50P1 02 Feb 11:36:07 11:39:10 18° 267° (W) 11:42:06 145.935-145.965
VERMONT LUNAR 02 Feb 11:40:35 11:44:03 66° 22° (NNE) 11:47:32 437.305
50 SAT 02 Feb 11:44:05 11:47:32 27° 287° (WNW) 11:50:53 437.505
ZACube-1 02 Feb 11:48:35 11:50:05 11° 292° (WNW) 11:51:20 437.345
GONETS M04 02 Feb 11:48:52 11:57:05 46° 77° (ENE) 12:05:23
Oscar 19 02 Feb 11:50:41 11:53:12 14° 67° (ENE) 11:55:59 437.125/150
POLYITAN 1 02 Feb 11:55:55 11:57:17 11° 270° (W) 11:58:21 437.675
PCSat 02 Feb 11:56:16 11:59:54 19° 51° (NE) 12:03:43 145.827
AIST 1 02 Feb 12:11:07 12:13:16 13° 288° (WNW) 12:15:12
SPROUT 02 Feb 12:21:50 12:26:08 62° 100° (E) 12:30:26 437.525
TISAT 1 02 Feb 12:43:10 12:47:28 74° 283° (WNW) 12:51:42 437.305
ESTCUBE 1 02 Feb 12:53:57 12:56:07 13° 292° (WNW) 12:58:04 437.505/2401.250
CUBEBUG 1 02 Feb 12:56:51 12:58:50 12° 292° (WNW) 13:00:35 437.445
PHONESAT 2.4 02 Feb 13:06:55 13:10:27 51° 211° (SSW) 13:13:59 2401.200-2431.200
RS-15 02 Feb 13:08:08 13:19:15 55° 55° (NE) 13:30:55 29.354- 29.394
VERMONT LUNAR 02 Feb 13:19:15 13:21:57 20° 216° (SW) 13:24:34 437.305
Oscar 19 02 Feb 13:26:59 13:32:07 59° 259° (W) 13:37:15 437.125/150
SWISSCUBE 02 Feb 13:38:04 13:42:50 62° 101° (E) 13:47:34 437.505
Gurwin Techsat 1B 02 Feb 13:38:15 13:43:06 38° 72° (ENE) 13:48:01 435.225
PCSat 02 Feb 13:38:26 13:43:44 54° 248° (WSW) 13:48:58 145.827
GONETS M04 02 Feb 13:46:14 13:53:41 32° 273° (W) 14:00:55
HORYU 2 02 Feb 13:48:04 13:49:21 11° 67° (ENE) 13:50:54 437.375
BEESAT 02 Feb 13:52:55 13:57:43 83° 102° (ESE) 14:02:30 436.000
ITAMSAT 1 02 Feb 13:53:17 13:58:26 83° 76° (ENE) 14:03:39 435.822/435.867
DANDE 02 Feb 13:56:06 13:58:04 12° 60° (ENE) 14:00:09 436.750
CUSAT 1 02 Feb 13:59:43 14:02:28 15° 63° (ENE) 14:05:03 437.405
